"Pseudo-MPEC" for CA202DF

Created 2020 Sep 18 18:07:23 UT using Find_Orb

Click here for an explanation of pseudo-MPECs

 
 Astrometry: 
     CA202DF  C2020 09 04$[yAstrometryIhGUft@u'bn0-wn^mbUn/_lJ[wAZ!VZ$D[Y0US`954
     CA202DF  C2020 09 04\TF#+oay1predacted;GAclick0mEEj@Ev`JhereAu]+P7kf-y20954
     CA202DF  C2020 09 04+[K^mB+hRx3wBS#gO=kforJl)Vv@!b'UOk`0DW^OexplanationE954

Station data:
(954) Teide Observatory  (N28.298383 W16.509400)  Canary Islands (Spain).

Orbital elements:  CA202DF
   Perihelion 2020 Apr 6.320271 +/- 479 TT =  7:41:11 (JD 2458945.820271)
Epoch 2020 Sep  4.0 TT = JDT 2459096.5   Earth MOID: 0.0208   AutoNEOCP
M 157.36944954 +/- 110              (J2000 ecliptic)
n   1.04439695 +/- 0.569            Peri.  331.79744 +/- 59
a   0.96211204 +/- 0.35             Node   212.41821 +/- 70
e   0.0672004 +/- 0.195             Incl.    2.76816 +/- 38
P   0.94/344.69d           H 25.0   G  0.15   U 12.4  SR
q 0.89745767 +/- 1.67    Q 1.02676641 +/- 32.4
From 3 observations 2020 Sept. 4 (14.9 min); mean residual 0".17
Residuals in arcseconds: 
200904 954  .07-  .07-    200904 954  .24+  .23+    200904 954  .15-  .16-    

Ephemerides (geocentric):
Date (UTC) HH   RA              Dec         delta   r     elong  mag " sig PA
---- -- -- --  -------------   -----------  ------ ------ -----  --- ---- ---
2020 09 18 18  02 38 00.479   +52 27 39.29  .04898 1.0263 115.0 20.7  33d 133
2020 09 18 19  02 37 56.509   +52 26 59.96  .04894 1.0263 115.0 20.7  33d 133
2020 09 18 20  02 37 52.524   +52 26 20.47  .04890 1.0263 115.1 20.7  33d 133
2020 09 18 21  02 37 48.524   +52 25 40.81  .04886 1.0263 115.1 20.7  33d 133
2020 09 18 22  02 37 44.509   +52 25 00.99  .04882 1.0263 115.2 20.7  33d 134
2020 09 18 23  02 37 40.479   +52 24 21.01  .04878 1.0263 115.2 20.7  33d 134
2020 09 19 00  02 37 36.434   +52 23 40.86  .04874 1.0263 115.2 20.7  33d 134
2020 09 19 01  02 37 32.374   +52 23 00.55  .04871 1.0263 115.3 20.7  33d 134
2020 09 19 02  02 37 28.299   +52 22 20.08  .04867 1.0263 115.3 20.7  33d 134
2020 09 19 03  02 37 24.209   +52 21 39.44  .04863 1.0263 115.4 20.7  33d 134
2020 09 19 04  02 37 20.104   +52 20 58.64  .04859 1.0264 115.4 20.7  33d 134
2020 09 19 05  02 37 15.984   +52 20 17.67  .04855 1.0264 115.5 20.7  33d 134
2020 09 19 06  02 37 11.849   +52 19 36.53  .04851 1.0264 115.5 20.7  33d 134
2020 09 19 07  02 37 07.698   +52 18 55.23  .04847 1.0264 115.6 20.7  33d 134
2020 09 19 08  02 37 03.533   +52 18 13.76  .04843 1.0264 115.6 20.7  33d 134
2020 09 19 09  02 36 59.353   +52 17 32.12  .04839 1.0264 115.7 20.7  33d 134
2020 09 19 10  02 36 55.157   +52 16 50.31  .04835 1.0264 115.7 20.7  33d 134
2020 09 19 11  02 36 50.947   +52 16 08.34  .04831 1.0264 115.8 20.7  33d 134
2020 09 19 12  02 36 46.721   +52 15 26.19  .04827 1.0264 115.8 20.7  33d 134
2020 09 19 13  02 36 42.481   +52 14 43.87  .04823 1.0264 115.9 20.7  33d 134
2020 09 19 14  02 36 38.225   +52 14 01.38  .04819 1.0264 115.9 20.7  33d 134
2020 09 19 15  02 36 33.955   +52 13 18.72  .04815 1.0264 116.0 20.7  33d 134
2020 09 19 16  02 36 29.669   +52 12 35.89  .04811 1.0264 116.0 20.7  33d 134
2020 09 19 17  02 36 25.368   +52 11 52.88  .04807 1.0264 116.0 20.7  33d 134
2020 09 19 18  02 36 21.052   +52 11 09.70  .04803 1.0264 116.1 20.7  33d 134
2020 09 19 19  02 36 16.721   +52 10 26.35  .04799 1.0264 116.1 20.7  33d 134
2020 09 19 20  02 36 12.375   +52 09 42.82  .04795 1.0264 116.2 20.6  33d 134
2020 09 19 21  02 36 08.014   +52 08 59.12  .04791 1.0264 116.2 20.6  33d 134
2020 09 19 22  02 36 03.638   +52 08 15.24  .04787 1.0264 116.3 20.6  33d 134
2020 09 19 23  02 35 59.246   +52 07 31.19  .04783 1.0264 116.3 20.6  33d 134
2020 09 20 00  02 35 54.840   +52 06 46.96  .04779 1.0264 116.4 20.6  33d 134
2020 09 20 01  02 35 50.419   +52 06 02.55  .04775 1.0265 116.4 20.6  33d 134
2020 09 20 02  02 35 45.982   +52 05 17.97  .04771 1.0265 116.5 20.6  33d 134
2020 09 20 03  02 35 41.531   +52 04 33.20  .04767 1.0265 116.5 20.6  33d 134
2020 09 20 04  02 35 37.064   +52 03 48.26  .04763 1.0265 116.6 20.6  33d 134
2020 09 20 05  02 35 32.582   +52 03 03.14  .04760 1.0265 116.6 20.6  33d 134
2020 09 20 06  02 35 28.085   +52 02 17.83  .04756 1.0265 116.7 20.6  33d 134
2020 09 20 07  02 35 23.573   +52 01 32.35  .04752 1.0265 116.7 20.6  33d 134
2020 09 20 08  02 35 19.046   +52 00 46.68  .04748 1.0265 116.8 20.6  33d 134
2020 09 20 09  02 35 14.504   +52 00 00.84  .04744 1.0265 116.8 20.6  33d 134
2020 09 20 10  02 35 09.947   +51 59 14.81  .04740 1.0265 116.9 20.6  33d 134
2020 09 20 11  02 35 05.375   +51 58 28.60  .04736 1.0265 116.9 20.6  33d 134
2020 09 20 12  02 35 00.788   +51 57 42.20  .04732 1.0265 117.0 20.6  33d 134
2020 09 20 13  02 34 56.185   +51 56 55.62  .04728 1.0265 117.0 20.6  33d 134
2020 09 20 14  02 34 51.568   +51 56 08.86  .04724 1.0265 117.1 20.6  33d 134
2020 09 20 15  02 34 46.935   +51 55 21.91  .04720 1.0265 117.1 20.6  33d 134
2020 09 20 16  02 34 42.287   +51 54 34.77  .04716 1.0265 117.2 20.6  33d 134
2020 09 20 17  02 34 37.625   +51 53 47.45  .04712 1.0265 117.2 20.6  33d 134